Location: Strada George Coșbuc
(47.6577°N, 23.5639°E)
Time: 22:21:01
(UTC+03:00)

ISS - Pass Details

Date: 04 September 2017
Orbit: 401 x 407 km, 51.6° (Epoch: 25 September)

Event Time Altitude Azimuth Distance (km) Brightness Sun altitude
Exits shadow 06:13:44 - 229° (SW) 1,713 -1.2 -6.4°
Reaches altitude 10° 06:14:20 10° 228° (SW) 1,468 -1.6 -6.3°
Maximum altitude 06:17:34 55° 150° (SSE) 499 -3.3 -5.8°
Drops below altitude 10° 06:20:49 10° 71° (ENE) 1,475 1.0 -5.3°
Sets 06:22:55 0° 67° (ENE) 2,338 2.6 -5.0°
